星链-32159 (STARLINK-32159)

导读

STARLINK-32159是美国SpaceX公司星链(Starlink)星座的成员,于2024年7月28日发射入轨,运行在低地球轨道。作为全球规模最大低轨卫星互联网项目的一员,它为偏远地区提供高速低延迟宽带服务,拓展全球网络覆盖,同时也引发太空轨道资源、天文观测等领域的持续讨论。

Basic Information
目录编号:
60293
目录名称:
STARLINK-32159
国际标识:
2024-132R
轨道中心:
EARTH
卫星名称:
星链-32159 (STARLINK-32159)
卫星全名:
星链-32159 (STARLINK-32159)
卫星状态:
在轨 (已飞行775 天)
发射日期:
2024-07-28 UTC
国别 :
美国 (US)
星等 :
--
This satellite is enrolled in the Space Conjunction Data Service (SCDS) and the current flight risk assessment level is: No High Risk
Orbit Information
数据来源 国际轨道数据
星历时间: 2026-09-11T08:00:04+0800
16小时前
查看轨道信息
半长轴: 6843.387km
偏心率: 0.0001495
轨道倾角: 53.158°
近地点辐角 89.634°
升交点赤经 270.047°
平近点角 330.142°
近地点: 464.226km
远地点: 466.274km
周期: 93.900分钟
每日圈数: 15.335437
Detailed Information
卫星平台:
Starlink v2.0 mini
运营商:
太空探索技术公司
运营商所在国:
美国
制造商(研发单位):
太空探索技术公司
制造商所在国:
美国
使用方式:
暂无
Satellite Introduction
星链(Starlink)计划是由太空探索技术公司(SpaceX)提出的一个巨型低轨卫星互联网星座项目,计划在2019年至2024年间在太空搭建由约1.2万颗卫星组成的“星链”网络,其中1584颗将部署在地球上空550千米处的近地轨道,并从2020年开始工作。该卫星仍在工作。
2D Orbit Map
3D Orbit Map
Orbit Altitude Analysis Chart
Orbit Inclination Analysis Chart
Orbit Comprehensive Analysis Chart
View Comprehensive Chart
Conjunction Data List
Event ID Objects TCA Miss Dist (km) Collision Risk Probability Collision Risk Index (CRI) Action
CDM_260914-043706-014406-029321
2026-09-14T
04:37:32+0000
1.959 km
极远距离
2.191763E-6 低风险 0.42
CDM_260909-014705-884406-029322
2026-09-09T
01:47:37+0000
2.049 km
极远距离
2.168607E-6 低风险 0.42
CDM_260910-190906-029306-817121
2026-09-10T
19:09:39+0000
2.198 km
极远距离
1.977934E-6 低风险 0.41
CDM_260912-073106-029306-286221
2026-09-12T
07:31:19+0000
2.168 km
极远距离
1.554509E-6 低风险 0.39
CDM_260910-050306-029306-485621
2026-09-10T
05:03:21+0000
2.695 km
极远距离
1.544478E-6 低风险 0.39
CDM_260913-043905-972306-029321
2026-09-13T
04:39:24+0000
2.262 km
极远距离
1.52582E-6 低风险 0.39
CDM_260913-025806-029306-770721
2026-09-13T
02:58:44+0000
2.619 km
极远距离
1.452011E-6 低风险 0.38
CDM_260913-094406-029306-974721
2026-09-13T
09:44:40+0000
2.908 km
极远距离
1.383395E-6 低风险 0.38
CDM_260913-165006-029306-031621
2026-09-13T
16:50:44+0000
2.576 km
极远距离
1.352405E-6 低风险 0.38
CDM_260911-154006-029306-926421
2026-09-11T
15:40:17+0000
2.409 km
极远距离
1.224803E-6 低风险 0.37
Miss Distance Evolution Trend with All Objects
Collision Probability Evolution Trend with All Objects